This is the latest recevied weather packets stored in our database for station/object KH6DH-13. If no packets are shown the sender has not sent any weather packets the latest 10 day(s).
| Time | Temp. | Humidity | Pressure | Rain* | Wind** | Luminosity | Snow |
|---|---|---|---|---|---|---|---|
| 1788618649 | 24.44° C | - | - | 0.25 mm | 0 m/s | - | - |
| 1788618048 | 24.44° C | - | - | 0.25 mm | 0 m/s | - | - |
| 1788617447 | 24.44° C | - | - | 0.25 mm | 0 m/s | - | - |
| 1788616846 | 24.44° C | - | - | 0.25 mm | 0 m/s | - | - |
| 1788616245 | 24.44° C | - | - | 0.25 mm | 0 m/s | - | - |
| 1788615668 | 24.44° C | - | - | 0.25 mm | 0 m/s | - | - |
| 1788615043 | 24.44° C | - | - | 0.51 mm | 0 m/s | - | - |
| 1788614442 | 24.44° C | - | - | 0.51 mm | 0.45 m/s, 35° | - | - |
| 1788613840 | 24.44° C | - | - | 0.51 mm | 0.45 m/s, 311° | - | - |
| 1788613239 | 24.44° C | - | - | 0.51 mm | 0.45 m/s, 122° | - | - |
| 1788612638 | 25° C | - | - | 0.51 mm | 0 m/s | - | - |
| 1788612037 | 25° C | - | - | 0.51 mm | 1.34 m/s, 63° | - | - |
| 1788611436 | 25° C | - | - | 0 mm | 0 m/s | - | - |
| 1788610835 | 25° C | - | - | 0 mm | 0 m/s | - | - |
| 1788610234 | 25° C | - | - | 0 mm | 1.34 m/s, 11° | - | - |
| 1788609633 | 24.44° C | - | - | 0 mm | 1.79 m/s, 55° | - | - |
| 1788609032 | 25° C | - | - | 0 mm | 1.34 m/s, 10° | - | - |
| 1788608431 | 25.56° C | - | - | 0 mm | 0.89 m/s, 17° | - | - |
| 1788607830 | 25° C | - | - | 0 mm | 1.79 m/s, 117° | - | - |
| 1788607229 | 25.56° C | - | - | 0 mm | 1.34 m/s, 96° | - | - |
| 1788606628 | 25.56° C | - | - | 0 mm | 2.24 m/s, 31° | - | - |
| 1788606027 | 25.56° C | - | - | 0 mm | 1.79 m/s, 359° | - | - |
| 1788605426 | 25.56° C | - | - | 0 mm | 1.34 m/s, 38° | - | - |
| 1788604825 | 25° C | - | - | 0 mm | 1.79 m/s, 262° | - | - |
| 1788604224 | 25° C | - | - | 0 mm | 1.34 m/s, 42° | - | - |
* Rain latest hour (hover to see other rain measurements)
** Current wind speed in m/s (hover to see current wind gust speed)